THY553 LTAI-HESH

Flight info

Callsign THY553
Flight time N/A
Altitude 41000
Route TOMBI M855 RASDA A16 CVO L315 OBTAV W727 DEDEV DEDEV1G
Aircraft A343/H-SDE2E3FGHIJ4J5M1RWXY/LB1D1

Departure

Time 2026-05-07 09:46
Airport Antalya International Airport (LTAI)

Arrival

Time N/A
Airport Sharm El Sheikh International Airport (HESH)
Time Latitude Longitude Altitude Speed Heading
2026-05-07 09:34 36.89025 30.80500 196 ft 0 kts 96°
2026-05-07 09:37 36.89027 30.80476 210 ft 4 kts 97°
2026-05-07 09:37 36.89030 30.80442 210 ft 4 kts 94°
2026-05-07 09:37 36.89029 30.80410 208 ft 4 kts 61°
2026-05-07 09:38 36.89015 30.80398 211 ft 4 kts
2026-05-07 09:38 36.88988 30.80394 203 ft 3 kts
2026-05-07 09:38 36.88985 30.80393 196 ft 0 kts
2026-05-07 09:40 36.88987 30.80394 196 ft 1 kts
2026-05-07 09:40 36.89026 30.80399 208 ft 13 kts
2026-05-07 09:41 36.89117 30.80467 208 ft 17 kts 81°
2026-05-07 09:41 36.89110 30.80617 201 ft 16 kts 89°
2026-05-07 09:41 36.89134 30.80650 203 ft 5 kts
2026-05-07 09:41 36.89227 30.80647 201 ft 21 kts
2026-05-07 09:42 36.89410 30.80670 199 ft 29 kts
2026-05-07 09:42 36.89610 30.80697 202 ft 29 kts
2026-05-07 09:42 36.89815 30.80726 202 ft 30 kts
2026-05-07 09:42 36.90021 30.80753 202 ft 30 kts
2026-05-07 09:43 36.90234 30.80783 201 ft 34 kts
2026-05-07 09:43 36.90458 30.80814 208 ft 31 kts
2026-05-07 09:43 36.90674 30.80843 203 ft 31 kts
2026-05-07 09:43 36.90892 30.80873 202 ft 32 kts
2026-05-07 09:44 36.91085 30.80902 206 ft 13 kts 14°
2026-05-07 09:44 36.91134 30.80977 207 ft 12 kts 82°
2026-05-07 09:44 36.91123 30.81085 201 ft 13 kts 113°
2026-05-07 09:44 36.91045 30.81130 208 ft 15 kts 183°
2026-05-07 09:45 36.90805 30.81098 199 ft 64 kts 187°
2026-05-07 09:45 36.90162 30.81010 202 ft 120 kts 186°
2026-05-07 09:45 36.89177 30.80881 215 ft 163 kts 184°
2026-05-07 09:45 36.88028 30.80742 746 ft 167 kts 185°
2026-05-07 09:46 36.86872 30.80929 1345 ft 172 kts 164°
2026-05-07 09:46 36.85599 30.81288 1647 ft 206 kts 171°
2026-05-07 09:46 36.84100 30.81550 2293 ft 225 kts 172°
2026-05-07 09:46 36.82541 30.81813 3257 ft 224 kts 172°
2026-05-07 09:47 36.80983 30.82087 4183 ft 230 kts 172°
2026-05-07 09:47 36.79390 30.82561 4766 ft 242 kts 159°
2026-05-07 09:47 36.77736 30.83256 5198 ft 264 kts 173°
2026-05-07 09:47 36.75878 30.83399 6033 ft 272 kts 181°
2026-05-07 09:48 36.73969 30.83409 6944 ft 277 kts 181°
2026-05-07 09:48 36.72017 30.83395 7814 ft 283 kts 181°
2026-05-07 09:48 36.70030 30.83373 8693 ft 289 kts 181°
2026-05-07 09:48 36.67997 30.83347 9559 ft 295 kts 181°
2026-05-07 09:49 36.66627 30.83329 10123 ft 299 kts 181°
2026-05-07 09:49 36.64496 30.83300 10607 ft 317 kts 181°
2026-05-07 09:49 36.62215 30.83267 10946 ft 337 kts 181°
2026-05-07 09:49 36.59818 30.83234 11452 ft 350 kts 181°
2026-05-07 09:50 36.57355 30.83199 12087 ft 358 kts 181°
2026-05-07 09:50 36.54830 30.83164 12776 ft 365 kts 181°
2026-05-07 09:50 36.52275 30.83127 13474 ft 371 kts 181°
2026-05-07 09:50 36.49663 30.83090 14155 ft 377 kts 181°
2026-05-07 09:51 36.47019 30.83052 14820 ft 382 kts 182°
2026-05-07 09:51 36.44346 30.83014 15490 ft 386 kts 182°
2026-05-07 09:51 36.41644 30.82976 16166 ft 391 kts 182°
2026-05-07 09:51 36.38909 30.82937 16862 ft 395 kts 182°
2026-05-07 09:52 36.36137 30.82898 17541 ft 399 kts 182°
2026-05-07 09:52 36.33343 30.82858 18220 ft 404 kts 183°
2026-05-07 09:52 36.30513 30.82817 18830 ft 408 kts 183°
2026-05-07 09:52 36.27660 30.82777 19431 ft 412 kts 183°
2026-05-07 09:53 36.24781 30.82735 20039 ft 415 kts 183°
2026-05-07 09:53 36.21875 30.82694 20641 ft 418 kts 184°
2026-05-07 09:53 36.19003 30.82653 21254 ft 420 kts 184°
2026-05-07 09:53 36.16072 30.82611 21823 ft 424 kts 184°
2026-05-07 09:54 36.13102 30.82569 22400 ft 427 kts 184°
2026-05-07 09:54 36.10123 30.82527 22965 ft 430 kts 184°
2026-05-07 09:54 36.07116 30.82484 23513 ft 434 kts 184°
2026-05-07 09:54 36.04087 30.82441 23998 ft 437 kts 185°
2026-05-07 09:55 36.01029 30.82462 24448 ft 441 kts 182°
2026-05-07 09:55 35.97962 30.82624 24925 ft 443 kts 181°
2026-05-07 09:55 35.94865 30.82852 25385 ft 446 kts 180°
2026-05-07 09:55 35.91761 30.83095 25826 ft 449 kts 180°
2026-05-07 09:56 35.88636 30.83329 26261 ft 451 kts 180°
2026-05-07 09:56 35.85497 30.83549 26695 ft 453 kts 181°
2026-05-07 09:56 35.82337 30.83755 27113 ft 455 kts 181°
2026-05-07 09:56 35.79165 30.83952 27516 ft 457 kts 181°
2026-05-07 09:57 35.75979 30.84144 27943 ft 459 kts 181°
2026-05-07 09:57 35.72819 30.84332 28336 ft 461 kts 181°
2026-05-07 09:57 35.69562 30.84525 28732 ft 464 kts 181°
2026-05-07 09:57 35.66330 30.84717 29098 ft 466 kts 181°
2026-05-07 09:58 35.63120 30.84909 29471 ft 469 kts 181°
2026-05-07 09:58 35.59857 30.85099 29841 ft 471 kts 182°
2026-05-07 09:58 35.56578 30.85241 30206 ft 472 kts 183°
2026-05-07 09:58 35.53291 30.85344 30540 ft 473 kts 183°
2026-05-07 09:59 35.49988 30.85435 30825 ft 475 kts 183°
2026-05-07 09:59 35.46674 30.85526 31107 ft 478 kts 183°
2026-05-07 09:59 35.43342 30.85623 31408 ft 480 kts 183°
2026-05-07 09:59 35.39998 30.85727 31674 ft 482 kts 183°
2026-05-07 10:00 35.36638 30.85836 31946 ft 484 kts 183°
2026-05-07 10:00 35.33273 30.85948 32237 ft 485 kts 183°
2026-05-07 10:00 35.29904 30.86062 32581 ft 484 kts 183°
2026-05-07 10:00 35.26532 30.86177 32958 ft 484 kts 183°
2026-05-07 10:01 35.23170 30.86292 33331 ft 483 kts 183°
2026-05-07 10:01 35.19809 30.86406 33696 ft 482 kts 183°
2026-05-07 10:01 35.16459 30.86520 34055 ft 482 kts 182°
2026-05-07 10:01 35.13113 30.86635 34345 ft 481 kts 182°
2026-05-07 10:02 35.09766 30.86747 34621 ft 481 kts 182°
2026-05-07 10:02 35.06417 30.86856 34873 ft 481 kts 182°
2026-05-07 10:02 35.03069 30.86966 35132 ft 482 kts 182°
2026-05-07 10:02 34.99708 30.87076 35389 ft 482 kts 182°
2026-05-07 10:03 34.96362 30.87186 35650 ft 482 kts 182°
2026-05-07 10:03 34.93047 30.87295 35882 ft 482 kts 182°
2026-05-07 10:03 34.89693 30.87407 36124 ft 482 kts 182°
2026-05-07 10:03 34.86336 30.87518 36385 ft 482 kts 182°
2026-05-07 10:04 34.82983 30.87629 36616 ft 483 kts 182°
2026-05-07 10:04 34.79623 30.87740 36843 ft 483 kts 182°
2026-05-07 10:04 34.76256 30.87851 37089 ft 484 kts 182°
2026-05-07 10:04 34.72890 30.87963 37314 ft 484 kts 182°
2026-05-07 10:05 34.69528 30.88074 37545 ft 484 kts 182°
2026-05-07 10:05 34.66160 30.88185 37783 ft 484 kts 181°
2026-05-07 10:05 34.62795 30.88296 38013 ft 484 kts 181°
2026-05-07 10:05 34.59427 30.88415 38229 ft 484 kts 181°
2026-05-07 10:06 34.56055 30.88568 38430 ft 485 kts 180°
2026-05-07 10:06 34.52685 30.88740 38641 ft 485 kts 180°
2026-05-07 10:06 34.49310 30.88917 38829 ft 486 kts 180°
2026-05-07 10:06 34.45927 30.89094 39001 ft 485 kts 180°
2026-05-07 10:07 34.42553 30.89268 39139 ft 486 kts 180°
2026-05-07 10:07 34.35796 30.89605 39170 ft 484 kts 180°
2026-05-07 10:08 34.29082 30.89935 39170 ft 482 kts 180°
2026-05-07 10:08 34.22365 30.90264 39170 ft 483 kts 180°
2026-05-07 10:09 34.15652 30.90631 39171 ft 483 kts 180°
2026-05-07 10:09 34.08935 30.91014 39170 ft 483 kts 180°
2026-05-07 10:10 34.02267 30.91389 39168 ft 483 kts 180°
2026-05-07 10:10 33.95558 30.91762 39170 ft 482 kts 180°
2026-05-07 10:11 33.88853 30.92072 39168 ft 482 kts 181°
2026-05-07 10:11 33.82148 30.92302 39168 ft 481 kts 181°
2026-05-07 10:12 33.75445 30.92537 39166 ft 482 kts 181°
2026-05-07 10:12 33.68742 30.92785 39168 ft 482 kts 181°
2026-05-07 10:13 33.62078 30.93038 39168 ft 482 kts 181°
2026-05-07 10:13 33.55369 30.93293 39150 ft 482 kts 181°
2026-05-07 10:14 33.48664 30.93547 39169 ft 482 kts 181°
2026-05-07 10:14 33.41956 30.93800 39164 ft 481 kts 181°
2026-05-07 10:15 33.35261 30.94052 39170 ft 482 kts 181°
2026-05-07 10:15 33.28565 30.94303 39168 ft 481 kts 181°
2026-05-07 10:16 33.21888 30.94554 39170 ft 480 kts 181°
2026-05-07 10:16 33.15211 30.94804 39170 ft 480 kts 181°
2026-05-07 10:17 33.08545 30.95061 39158 ft 480 kts 180°
2026-05-07 10:17 33.01885 30.95716 39173 ft 480 kts 176°
2026-05-07 10:18 32.95254 30.96575 39166 ft 478 kts 176°
2026-05-07 10:18 32.88651 30.97383 39165 ft 475 kts 177°
2026-05-07 10:19 32.82069 30.98114 39096 ft 475 kts 178°
2026-05-07 10:19 32.75478 30.98768 39015 ft 475 kts 178°
2026-05-07 10:20 32.68927 30.99345 38973 ft 474 kts 179°
2026-05-07 10:20 32.62348 30.99852 38961 ft 473 kts 179°
2026-05-07 10:21 32.55777 31.00287 38879 ft 473 kts 180°
2026-05-07 10:21 32.49205 31.00650 38804 ft 473 kts 180°
2026-05-07 10:22 32.42620 31.00943 38793 ft 472 kts 181°
2026-05-07 10:22 32.36063 31.01147 38762 ft 470 kts 181°
2026-05-07 10:23 32.29517 31.01262 38690 ft 470 kts 182°
2026-05-07 10:23 32.22975 31.01320 38654 ft 470 kts 182°
2026-05-07 10:24 32.16552 31.01359 38661 ft 468 kts 182°
2026-05-07 10:24 32.10037 31.01488 38557 ft 469 kts 181°